Date String (YYYY-MM-DD hh:mm:ss) UTC,Instrument flags,Ambient pressure (hPa),Sample flow (lpm),Bypass flow (lpm),Sample temperature (°C),Ambient temperature (°C),ASC tube jacket temperature (°C),LED temperature (°C),Box temperature (°C),Sample RH (%),Span deviation,Mass concentration (μg/m³),Mass concentration (μg/m³),Mass concentration (μg/m³)
DateTimeUTC,F1_M11,P_M11,Q1_M11,Q2_M11,T1_M11,T2_M11,T3_M11,T4_M11,T5_M11,U1_M11,ZSPAN_M11,X0_M11,X2_M11,X1_M11
2022-10-14 14:00:00,,0824.1,5.00,0.00,27.7,26.3,00.0,36.5,29.7,11.2,0000.0,0008.25,0004.13,0003.70
2022-10-14 14:01:00,,0824.1,5.00,0.00,27.7,26.3,00.0,36.5,29.7,11.0,0000.0,0008.15,0004.11,0003.69
2022-10-14 14:02:00,,0824.1,5.00,0.00,27.8,26.3,00.0,36.5,29.7,10.9,0000.0,0008.49,0004.11,0003.69
2022-10-14 14:03:00,,0824.1,5.00,0.00,27.8,26.4,00.0,36.5,29.7,10.8,0000.0,0008.29,0004.11,0003.69
2022-10-14 14:04:00,,0824.1,5.00,0.00,27.8,26.4,00.0,36.5,29.7,10.8,0000.0,0007.66,0004.07,0003.68
2022-10-14 14:05:00,,0824.1,5.00,0.00,27.8,26.4,00.0,36.5,29.7,10.7,0000.0,0008.57,0004.16,0003.69
2022-10-14 14:06:00,,0824.1,5.00,0.00,27.8,26.4,00.0,36.5,29.7,09.7,0000.0,0010.63,0004.43,0003.71
2022-10-14 14:07:00,,0824.1,5.00,0.00,27.8,26.4,00.0,36.6,29.7,09.5,0000.0,0011.41,0004.46,0003.71
2022-10-14 14:08:00,,0824.1,5.00,0.00,27.8,26.4,00.0,36.6,29.7,09.5,0000.0,0011.29,0004.46,0003.70
2022-10-14 14:09:00,,0824.1,4.99,0.00,27.8,26.4,00.0,36.6,29.7,09.6,0000.0,0011.06,0004.43,0003.69
2022-10-14 14:10:00,,0824.1,5.00,0.00,27.8,26.4,00.0,36.6,29.7,09.7,0000.0,0010.92,0004.41,0003.69
2022-10-14 14:11:00,,0824.1,4.99,0.00,27.8,26.4,00.0,36.6,29.7,09.8,0000.0,0010.85,0004.38,0003.69
2022-10-14 14:12:00,,0824.1,5.01,0.00,27.8,26.4,00.0,36.6,29.8,10.0,0000.0,0011.48,0004.41,0003.69
2022-10-14 14:13:00,,0824.1,5.00,0.00,27.8,26.4,00.0,36.6,29.8,09.7,0000.0,0011.43,0004.44,0003.70
2022-10-14 14:14:00,,0824.1,5.01,0.00,27.8,26.4,00.0,36.6,29.7,10.0,0000.0,0011.24,0004.43,0003.69
2022-10-14 14:15:00,,0824.1,5.00,0.00,27.8,26.4,00.0,36.6,29.8,10.1,0000.0,0011.75,0004.48,0003.70
2022-10-14 14:16:00,,0824.1,4.98,0.00,27.9,26.4,00.0,36.6,29.8,09.9,0000.0,0011.63,0004.46,0003.70
2022-10-14 14:17:00,,0824.2,4.99,0.00,27.9,26.4,00.0,36.6,29.8,09.9,0000.0,0009.61,0004.13,0003.66
2022-10-14 14:18:00,,0824.2,5.01,0.00,27.9,26.5,00.0,36.6,29.8,09.9,0000.0,0008.62,0004.05,0003.64
2022-10-14 14:19:00,,0824.2,5.01,0.00,27.9,26.5,00.0,36.6,29.8,09.9,0000.0,0008.68,0004.06,0003.65
2022-10-14 14:20:00,,0824.3,5.00,0.00,27.9,26.4,00.0,36.6,29.8,09.6,0000.0,0008.69,0004.08,0003.64
2022-10-14 14:21:00,,0824.3,5.00,0.00,27.9,26.5,00.0,36.7,29.8,09.8,0000.0,0008.69,0004.09,0003.63
2022-10-14 14:22:00,,0824.3,5.00,0.00,27.9,26.5,00.0,36.7,29.8,09.8,0000.0,0008.60,0004.08,0003.62
2022-10-14 14:23:00,,0824.4,5.00,0.00,27.9,26.5,00.0,36.7,29.8,10.2,0000.0,0008.41,0004.06,0003.65
2022-10-14 14:24:00,,0824.2,5.00,0.00,27.9,26.5,00.0,36.7,29.9,09.8,0000.0,0008.38,0004.05,0003.65
2022-10-14 14:25:00,,0824.2,4.98,0.00,27.9,26.5,00.0,36.7,29.9,09.4,0000.0,0008.24,0004.07,0003.65
2022-10-14 14:26:00,,0824.3,5.00,0.00,27.9,26.5,00.0,36.7,29.9,09.5,0000.0,0007.95,0004.03,0003.64
2022-10-14 14:27:00,,0824.3,5.00,0.00,27.9,26.5,00.0,36.7,29.9,10.0,0000.0,0007.88,0004.03,0003.64
2022-10-14 14:28:00,,0824.3,5.00,0.00,27.9,26.6,00.0,36.7,29.9,10.1,0000.0,0007.39,0004.05,0003.66
2022-10-14 14:29:00,,0824.2,5.00,0.00,28.0,26.6,00.0,36.7,29.9,10.4,0000.0,0007.40,0004.04,0003.65
2022-10-14 14:30:00,,0824.2,5.00,0.00,28.0,26.6,00.0,36.7,29.9,11.6,0000.0,0007.55,0004.12,0003.70
2022-10-14 14:31:00,,0824.4,5.00,0.00,28.0,26.7,00.0,36.7,29.9,11.4,0000.0,0007.61,0004.18,0003.78
2022-10-14 14:32:00,,0824.2,5.00,0.00,28.0,26.7,00.0,36.7,29.9,12.4,0000.0,0007.81,0004.29,0003.88
2022-10-14 14:33:00,,0824.3,5.00,0.00,28.0,26.7,00.0,36.7,30.0,12.2,0000.0,0008.57,0004.47,0004.00
2022-10-14 14:34:00,,0824.3,5.00,0.00,28.0,26.7,00.0,36.8,30.0,12.3,0000.0,0008.50,0004.59,0004.09
2022-10-14 14:35:00,,0824.3,5.00,0.00,28.0,26.7,00.0,36.8,30.0,10.9,0000.0,0008.59,0004.69,0004.15
2022-10-14 14:36:00,,0824.2,5.00,0.00,28.0,26.7,00.0,36.8,30.0,09.9,0000.0,0008.58,0004.68,0004.16
2022-10-14 14:37:00,,0824.2,4.99,0.00,28.1,26.8,00.0,36.8,30.0,10.1,0000.0,0008.37,0004.68,0004.15
2022-10-14 14:38:00,,0824.2,4.99,0.00,28.1,26.8,00.0,36.8,30.0,10.8,0000.0,0008.37,0004.70,0004.17
2022-10-14 14:39:00,,0824.2,5.00,0.00,28.1,26.8,00.0,36.8,30.0,11.1,0000.0,0008.46,0004.76,0004.22
2022-10-14 14:40:00,,0824.2,5.00,0.00,28.1,26.8,00.0,36.8,30.0,11.0,0000.0,0008.48,0004.81,0004.26
2022-10-14 14:41:00,,0824.2,5.00,0.00,28.1,26.8,00.0,36.8,30.0,11.4,0000.0,0008.34,0004.79,0004.30
2022-10-14 14:42:00,,0824.3,5.00,0.00,28.1,26.8,00.0,36.8,30.1,11.1,0000.0,0008.30,0004.75,0004.26
2022-10-14 14:43:00,,0824.2,5.01,0.00,28.1,26.8,00.0,36.8,30.1,11.8,0000.0,0008.43,0004.79,0004.25
2022-10-14 14:44:00,,0824.2,5.01,0.00,28.1,26.8,00.0,36.9,30.1,12.2,0000.0,0007.95,0004.77,0004.25
2022-10-14 14:45:00,,0824.3,5.01,0.00,28.2,26.9,00.0,36.9,30.1,12.0,0000.0,0007.90,0004.75,0004.24
2022-10-14 14:46:00,,0824.2,5.00,0.00,28.2,26.9,00.0,36.9,30.1,11.7,0000.0,0008.07,0004.79,0004.26
2022-10-14 14:47:00,,0824.2,5.00,0.00,28.2,26.9,00.0,36.9,30.1,11.5,0000.0,0008.26,0004.91,0004.35
2022-10-14 14:48:00,,0824.2,4.99,0.00,28.2,26.9,00.0,36.9,30.1,11.4,0000.0,0008.43,0005.03,0004.45
2022-10-14 14:49:00,,0824.2,4.99,0.00,28.2,26.9,00.0,36.9,30.2,11.3,0000.0,0008.57,0005.13,0004.54
2022-10-14 14:50:00,,0824.2,5.00,0.00,28.2,26.9,00.0,36.9,30.2,10.9,0000.0,0008.52,0005.12,0004.53
2022-10-14 14:51:00,,0824.2,5.00,0.00,28.2,26.9,00.0,36.9,30.2,11.0,0000.0,0008.45,0005.09,0004.51
2022-10-14 14:52:00,,0824.3,5.00,0.00,28.2,27.0,00.0,36.9,30.2,11.4,0000.0,0008.38,0005.08,0004.50
2022-10-14 14:53:00,,0824.3,5.00,0.00,28.2,27.0,00.0,37.0,30.2,11.5,0000.0,0009.02,0005.11,0004.51
2022-10-14 14:54:00,,0824.2,5.00,0.00,28.3,27.0,00.0,37.0,30.2,11.5,0000.0,0009.74,0005.08,0004.48
2022-10-14 14:55:00,,0824.2,5.00,0.00,28.3,27.0,00.0,37.0,30.2,11.3,0000.0,0009.62,0004.99,0004.43
2022-10-14 14:56:00,,0824.3,5.00,0.00,28.3,27.1,00.0,37.0,30.2,10.8,0000.0,0009.41,0004.91,0004.35
2022-10-14 14:57:00,,0824.2,4.99,0.00,28.3,27.1,00.0,37.0,30.2,11.0,0000.0,0009.21,0004.79,0004.26
2022-10-14 14:58:00,,0824.2,4.99,0.00,28.3,27.1,00.0,37.0,30.3,11.7,0000.0,0009.20,0004.69,0004.20
2022-10-14 14:59:00,,0824.2,5.00,0.00,28.3,27.1,00.0,37.0,30.3,12.3,0000.0,0009.54,0004.64,0004.16
